パンスターズ彗星

311P/PanSTARRS (2014)

English version
Home page
Updated on November 3, 2020

---------------------------------------------------------------------

・ プロフィール

符号 311P/2013 P5
発見日 2013年8月15日
発見光度 20.9等
発見者 Pan-STARRS 1 telescope (Haleakala)

・ 写真集

・ 軌道要素

Epoch 2014 Apr. 13.0 TT = JDT 2456760.5
T 2014 Apr. 15.93304 TT                                 MPCW
q   1.9361426            (2000.0)            P               Q
n   0.30441613     Peri.  144.28252     +0.44291843     -0.89247841
a   2.1885557      Node   279.28881     +0.80115844     +0.43677847
e   0.1153332      Incl.    4.96851     +0.40245301     +0.11272466
P   3.24
From 184 observations 2005 Jan. 17-2018 Mar. 7, mean residual 0".3.

・ 光度変化

        H = 17.5  G = 0.15

---------------------------------------------------------------------

軌道要素はM.P.E.C. 2018-F152に掲載されたものです。
光度グラフはComet for Windowsで作成したものです。

---------------------------------------------------------------------

Copyright(C) Seiichi Yoshida (comet@aerith.net). All rights reserved.